This is the latest recevied weather packets stored in our database for station/object CA3DPI. If no packets are shown the sender has not sent any weather packets the latest 10 day(s).
| Time | Temp. | Humidity | Pressure | Rain* | Wind** | Luminosity | Snow |
|---|---|---|---|---|---|---|---|
| 1777042724 | 25° C | 32% | 1025 hPa | - | - | - | - |
| 1777042124 | 25° C | 34% | 1025.1 hPa | - | - | - | - |
| 1777041524 | 24.44° C | 35% | 1025 hPa | - | - | - | - |
| 1777040924 | 22.78° C | 36% | 1025 hPa | - | - | - | - |
| 1777040324 | 21.67° C | 37% | 1025 hPa | - | - | - | - |
| 1777039724 | 21.67° C | 38% | 1025.1 hPa | - | - | - | - |
| 1777039123 | 21.67° C | 39% | 1025.1 hPa | - | - | - | - |
| 1777038523 | 20.56° C | 39% | 1025.1 hPa | - | - | - | - |
| 1777037923 | 20° C | 40% | 1025.2 hPa | - | - | - | - |
| 1777037323 | 19.44° C | 41% | 1025.2 hPa | - | - | - | - |
| 1777036723 | 18.33° C | 43% | 1025.1 hPa | - | - | - | - |
| 1777036129 | 17.78° C | 44% | 1025 hPa | - | - | - | - |
| 1777035529 | 16.67° C | 46% | 1025.1 hPa | - | - | - | - |
| 1777034929 | 16.11° C | 47% | 1024.9 hPa | - | - | - | - |
| 1777034328 | 15° C | 48% | 1024.9 hPa | - | - | - | - |
| 1777033728 | 14.44° C | 50% | 1025 hPa | - | - | - | - |
| 1777033128 | 13.33° C | 52% | 1024.7 hPa | - | - | - | - |
| 1777032528 | 12.22° C | 53% | 1024.7 hPa | - | - | - | - |
| 1777031928 | 11.11° C | 56% | 1024.6 hPa | - | - | - | - |
| 1777031328 | 9.44° C | 57% | 1024.7 hPa | - | - | - | - |
| 1777030727 | 8.89° C | 60% | 1024.6 hPa | - | - | - | - |
| 1777030127 | 8.89° C | 63% | 1024.6 hPa | - | - | - | - |
| 1777029527 | 8.89° C | 62% | 1024.6 hPa | - | - | - | - |
| 1777028927 | 9.44° C | 60% | 1024.3 hPa | - | - | - | - |
| 1777028327 | 9.44° C | 59% | 1024.1 hPa | - | - | - | - |
* Rain since midnight (hover to see other rain measurements)
** Current wind speed in m/s (hover to see current wind gust speed)